Regional Weather Roundup
Issued by NWS

Home | Current Version | Previous Version | Graphics & Text | Print | Product List | Glossary On
Versions: 1 2 3 4 5 6 7 8 9 10 11 12 13 14 15 16 17 18 19 20 21 22 23 24 25 26 27 28 29 30 31 32 33 34 35 36 37 38 39 40 41 42 43 44 45 46 47 48 49 50
000
ASUS43 KBIS 281210
RWRND

NORTH DAKOTA REGIONAL WEATHER ROUNDUP
NATIONAL WEATHER SERVICE BISMARCK ND
600 AM CST SAT FEB 28 2015

NOTE: "FAIR" INDICATES FEW OR NO CLOUDS BELOW 12,000 FEET WITH NO
SIGNIFICANT WEATHER AND/OR OBSTRUCTIONS TO VISIBILITY.


NDZ001>003-009>011-017-281300-
NORTHWEST NORTH DAKOTA

CITY           SKY/WX    TMP DP  RH WIND       PRES   REMARKS
WILLISTON      CLOUDY     4  -4  69 N9        30.12R WCI -10
6HR MIN TEMP:   4; 6HR MAX TEMP:  12;

MINOT          CLOUDY    13   4  67 W5        30.05R WCI   5
MINOT AFB      CLOUDY    13   7  77 W8        30.05S WCI   1
$$

NDZ018>021-031>035-040>046-281300-
SOUTHWEST NORTH DAKOTA

CITY           SKY/WX    TMP DP  RH WIND       PRES   REMARKS
BISMARCK       CLEAR      7   2  80 E3        30.08R
6HR MIN TEMP:   7; 6HR MAX TEMP:  13;

DICKINSON      MOCLDY     8   4  83 W10       29.99R WCI  -6
GARRISON         N/A     10   4  76 CALM      30.04R
6HR MIN TEMP:   9; 6HR MAX TEMP:  11;

HETTINGER ARPT MOCLDY     6   3  87 W7        30.03R WCI  -6
$$

NDZ004>008-012>016-024-026-027-054-281300-
NORTHEAST NORTH DAKOTA

CITY           SKY/WX    TMP DP  RH WIND       PRES   REMARKS
GRAND FORKS    PTCLDY     3  -3  76 S15       30.22F WCI -16
GRND FRKS AFB  FLURRIES   3  -4  72 S10       30.21S WCI -12
DEVILS LAKE    CLOUDY     9   0  66 SE9       30.10S WCI  -5
$$

NDZ022-023-025-028>030-036>039-047>053-281300-
SOUTHEAST NORTH DAKOTA

CITY           SKY/WX    TMP DP  RH WIND       PRES   REMARKS
FARGO          FAIR       6  -2  69 S14       30.27F WCI -11
6HR MIN TEMP:   6; 6HR MAX TEMP:   8;

JAMESTOWN      PTCLDY     4  -2  76 S16       30.14S WCI -15
$$




USA.gov is the U.S. government's official web portal to all federal, state and local government web resources and services.